Tracking 29892 objects as of 21-Nov-2024
HD Live streaming from Space Station
objects crossing your sky now

ORBCOMM FM 3

Track ORBCOMM FM 3 now!
10-day predictions
ORBCOMM FM 3 is classified as:


NORAD ID: 25158
Int'l Code: 1998-007B
Perigee: 752.5 km
Apogee: 822.5 km
Inclination: 108.0 °
Period: 100.5 minutes
Semi major axis: 7158 km
RCS: 0.7809 m2 (medium)
Launch date: February 10, 1998
Source: ORBCOMM (ORB)
Launch site: AIR FORCE WESTERN TEST RANGE (AFWTR)
Your satellite tracking list
Your tracking list is empty




NASA's NSSDC Master Catalog

Two Line Element Set (TLE):
1 25158U 98007B   24325.90386758  .00002510  00000-0  94288-3 0  9999
2 25158 107.9667  68.0053 0048879 253.2271 106.3502 14.33402980394185
Source of the keplerian elements: AFSPC